Location: Newark
(33.9035°S, 18.4112°E)
Time: 10:21:57
(UTC+00:00)

STARLINK-1126 - Pass Details

Date: 20 January 2020
Orbit: 348 x 351 km, 53.0° (Epoch: 22 February)

Event Time Altitude Azimuth Distance (km) Brightness Sun altitude
Exits shadow 02:34:13 26° 0° (N) 731 3.9 -15.2°
Maximum altitude 02:35:20 39° 50° (NE) 550 3.7 -15.0°
Drops below altitude 10° 02:38:08 10° 120° (ESE) 1,332 7.0 -14.5°
Sets 02:40:14 0° 128° (SE) 2,183 8.7 -14.2°
